Volver al catálogo

DELTA 1 DEB

ActivoSSO
NORAD 40769·DEBRIS·🇺🇸 United States

Lanzado Jul 29, 1976 desde Vandenberg Space Force Base

Loading…

Próximos Pases (próximas 24 horas)

TLE

ActualizadoSource: Space-Track

Época: Sep 14, 2026, 09:39 UTC

1 40769U 76077GN  26257.40243535  .00000056  00000-0  72964-3 0  9993
2 40769 102.0757 232.4586 0006898 215.2781 144.7828 12.42742086 77922

Sigue DELTA 1 DEB en tiempo real con AllMySat

Download on the App Store